SCP
0 0 0 0 0 0 0 0 2 3 3 5 4 3 5 5 4 2 2 2 2 1 1 2 2 1 1 1 0 0 0 0 0 0 0 0 0 0 0 0 0 0 0
0 0 0 0 0 0 0 0 0 1 3 3 3 2 2 3 5 3 2 1 3 3 1 1 1 2 2 1 0 0 0 0 0 0 0 0 0 0 0 0 0 0 1
0 0 0 0 0 0 0 0 0 0 0 1 3 2 1 1 2 2 2 1 1 4 3 2 2 1 1 1 1 0 0 0 0 0 0 0 0 0 0 0 0 1 1
0 0 0 0 0 0 0 0 0 0 0 0 0 2 1 1 0 0 1 2 2 1 2 2 2 2 2 2 1 1 0 0 0 1 1 0 0 0 0 0 0 0 0
0 0 0 0 0 0 0 0 0 0 0 0 0 0 0 0 -0 0 1 1 2 2 3 2 2 3 2 2 1 1 0 0 0 0 0 1 1 1 1 0 0 0 0
0 0 0 0 0 0 0 0 0 0 0 0 0 0 0 0 0 0 1 1 1 1 1 2 1 2 1 1 2 1 0 0 1 1 1 0 0 0 0 0 0 0 0
0 0 0 0 0 0 0 0 0 0 0 0 0 0 0 0 0 0 0 1 1 1 1 1 3 2 2 2 1 1 0 0 1 1 1 0 0 0 0 0 0 0 0
0 0 0 0 0 0 0 0 0 0 0 0 0 0 0 0 0 0 0 0 0 0 0 1 1 1 3 3 2 2 1 1 0 1 1 -1 -0 0 0 0 1 0 0
0 0 0 0 0 0 0 0 0 0 0 0 0 0 0 0 0 0 0 0 0 0 0 0 1 0 0 0 0 0 0 0 0 1 0 -1 0 1 1 0 1 1 1
0 0 0 0 0 0 0 0 0 0 0 0 0 0 0 0 0 0 0 0 0 0 0 0 1 1 1 0 0 1 0 0 0 0 -0 -0 -0 0 2 1 1 1 1
0 0 0 0 0 0 0 0 0 0 0 0 0 0 0 0 0 0 0 0 0 0 0 0 0 0 0 1 1 1 0 0 -0 0 0 -0 -0 1 2 2 1 0 0
0 0 0 0 0 0 0 0 0 0 0 0 0 0 0 0 0 0 0 0 0 0 0 0 0 0 0 0 1 1 0 0 0 0 1 0 1 1 2 2 1 0 0
0 0 0 0 0 0 0 0 0 0 0 0 0 0 0 0 0 0 0 0 0 0 0 0 0 0 0 0 0 0 1 1 1 1 1 -0 2 2 2 1 1 0 0
0 -0 0 0 0 0 0 0 0 0 0 0 0 0 0 0 0 0 0 0 0 0 0 0 0 0 0 0 0 0 0 1 1 1 1 1 2 1 1 1 1 0 0
0 0 0 0 0 0 0 0 0 0 0 0 0 0 0 0 0 0 0 0 0 0 0 0 0 0 0 0 0 0 0 0 0 0 1 1 2 1 1 1 1 0 0
0 0 0 0 0 0 0 0 0 0 0 0 0 0 0 0 0 0 0 0 0 0 0 0 0 0 0 0 0 0 0 0 0 0 1 2 1 1 1 1 1 0 0
0 0 0 0 0 0 0 0 0 0 0 0 0 0 0 0 0 0 0 0 0 0 0 0 0 0 0 0 -0 0 0 0 0 1 1 1 1 1 0 0 0 0 0
0 0 0 0 0 0 0 0 0 0 0 0 0 0 0 0 0 0 0 0 0 0 0 0 0 0 0 0 0 0 0 0 0 0 1 1 0 0 0 0 0 0 0
0 0 0 0 0 0 -0 -0 0 0 0 0 0 0 0 0 0 0 0 0 0 0 0 0 0 0 0 0 0 0 0 0 0 0 1 1 0 0 0 0 0 0 0
0 0 0 0 0 0 0 0 0 0 0 0 0 0 0 0 0 0 0 0 0 0 0 0 0 0 0 0 0 0 0 0 0 0 0 0 0 0 0 0 0 0 0
0 0 0 0 0 0 0 0 0 0 0 0 0 0 0 0 0 0 0 0 0 0 0 0 0 0 0 0 0 0 0 0 0 0 0 0 0 0 0 0 0 0 0
0 0 0 0 0 0 0 0 0 0 0 0 0 0 0 0 0 0 0 0 0 0 0 0 0 0 0 -0 0 0 0 0 0 0 0 0 0 0 0 0 0 0 0
-0 0 0 -0 0 0 0 0 0 0 0 0 0 0 0 0 0 0 0 0 0 0 0 0 0 0 -0 -0 -0 0 0 0 0 0 0 0 0 0 0 0 0 0 0
0 0 0 0 -0 0 0 -0 0 0 0 0 0 0 0 0 0 0 0 0 0 0 0 0 0 0 0 -0 -0 0 0 0 0 0 0 0 0 0 0 0 0 0 0
0 0 0 0 0 0 -0 0 -0 0 0 0 0 0 0 0 0 0 0 0 0 0 0 -0 0 0 0 0 -0 0 0 0 0 0 0 0 0 0 0 0 0 0 0
-0 0 0 -0 -0 -0 -0 -0 -0 -0 -0 0 0 0 0 0 0 0 0 0 0 0 0 0 0 -0 0 0 0 0 0 0 0 0 0 0 0 0 0 0 0 0 0
Wind_Speed_500mb
41 38 28 38 51 53 55 53 42 49 70 73 69 66 64 57 61 62 63 60 59 53 45 46 43 38 44 50 48 53 53 54 53 56 60 57 52 48 34 39 30 40 46
46 46 44 44 55 59 56 52 41 39 59 74 72 69 65 64 68 63 63 67 59 57 52 56 47 45 43 52 55 54 57 58 61 56 58 53 48 48 28 46 45 56 50
41 50 51 53 53 52 49 47 40 35 42 55 63 68 62 54 61 81 77 70 63 52 59 55 48 52 51 50 57 56 56 61 60 63 57 22 26 46 55 46 50 64 35
55 60 60 64 62 57 49 42 41 42 38 38 45 52 63 60 62 59 65 72 84 84 67 63 51 44 45 52 51 51 55 62 59 67 69 60 61 67 56 63 53 55 60
67 73 78 75 62 56 50 45 40 42 43 41 46 43 46 58 64 67 49 55 56 67 67 64 55 55 52 61 57 60 62 60 56 68 75 67 70 80 75 75 64 64 62
64 70 83 67 55 43 39 36 34 34 42 51 44 49 46 50 55 57 61 69 73 74 80 92 84 80 70 81 66 64 60 60 62 71 76 64 65 72 72 81 76 70 77
59 66 78 70 56 49 38 27 22 19 20 21 31 33 36 40 42 50 52 49 47 55 60 69 73 86 86 99 72 75 80 87 93 84 85 79 83 76 94 83 89 79 77
69 81 75 67 57 46 39 35 29 26 23 21 22 20 22 27 31 30 31 35 40 41 41 43 53 57 60 57 68 68 89 88 90 86 105 105 102 103 100 87 97 78 68
68 64 57 49 42 36 38 35 37 33 34 37 32 30 34 31 30 27 24 24 26 32 35 35 38 50 52 67 76 66 80 106 111 102 116 119 118 128 108 85 77 67 67
12 52 53 48 50 42 43 45 46 45 40 35 30 36 34 29 29 29 27 26 29 30 32 38 46 37 38 43 48 61 65 79 88 108 114 118 97 93 79 77 74 65 70
42 39 14 33 46 49 59 56 57 54 45 36 30 24 26 26 25 27 30 32 35 35 35 33 39 40 48 49 55 60 69 63 70 81 79 75 81 80 77 73 63 62 65
22 36 37 25 27 46 53 58 62 55 46 41 41 39 39 42 45 45 45 44 46 45 43 45 48 44 45 51 55 60 70 69 76 85 78 79 82 84 69 64 58 55 55
61 50 30 21 27 26 35 40 49 52 49 52 52 49 48 47 45 44 37 40 45 50 53 59 64 58 51 49 55 62 62 66 71 73 79 81 83 80 73 60 55 48 47
66 61 54 27 27 25 16 9 28 55 55 56 55 54 54 54 54 55 55 54 52 53 50 53 65 65 66 63 58 54 65 67 64 71 80 82 83 83 70 56 52 46 43
21 32 35 41 31 28 31 29 49 40 33 43 49 52 56 60 64 69 69 69 70 70 69 65 67 76 78 75 64 58 57 68 69 69 69 76 71 62 56 53 49 47 49
34 29 36 31 37 45 55 60 66 62 61 64 63 63 63 63 66 67 65 69 75 77 90 98 100 82 80 70 61 62 61 61 62 69 69 63 63 56 56 49 46 48 44
26 31 34 41 47 53 51 51 58 65 67 70 69 70 70 72 75 70 72 79 81 85 72 77 74 79 77 72 71 66 67 61 69 68 67 68 62 57 54 47 44 42 40
52 59 63 70 80 84 80 72 65 65 64 66 71 67 61 62 66 74 83 86 83 79 73 58 66 76 79 77 73 59 67 64 66 66 62 63 58 54 50 48 45 41 38
89 84 86 89 96 106 107 97 86 84 83 84 84 80 77 76 74 76 80 88 82 76 76 66 63 63 67 69 62 56 57 65 65 57 57 58 55 50 45 45 41 39 33
73 85 96 94 94 101 98 99 105 99 110 96 87 84 82 83 85 84 82 86 81 86 77 71 60 57 55 62 62 50 56 64 62 57 53 44 40 45 45 40 37 31 26
106 104 103 103 103 95 84 88 91 90 87 87 91 93 94 90 85 87 84 79 68 71 76 76 66 56 60 68 61 56 56 61 59 56 48 40 36 45 43 31 28 25 21
97 96 97 102 99 91 82 86 90 90 85 82 84 89 84 82 81 77 80 79 71 77 68 74 72 55 62 77 71 58 60 57 58 52 60 54 53 50 32 28 25 24 22
107 100 97 96 95 88 84 85 91 81 72 72 79 87 89 87 74 75 69 72 68 62 73 78 75 59 68 76 78 69 60 55 56 55 59 51 49 45 32 29 25 27 25
105 99 101 98 92 86 86 89 84 73 69 69 72 73 69 68 67 61 59 54 62 67 57 58 65 66 64 63 73 65 53 50 49 48 41 41 41 34 33 31 30 26 25
106 98 93 97 98 88 81 82 79 69 69 65 67 65 61 60 61 60 59 66 66 64 65 69 66 63 59 55 60 53 47 54 54 52 44 47 41 39 36 33 31 31 32
108 104 95 95 100 86 73 69 68 67 67 62 60 63 61 58 60 60 58 57 55 55 53 48 53 63 57 47 46 42 46 63 71 64 65 50 39 41 42 38 36 36 35
Wind_Direction_500mb
189 201 207 216 204 215 211 214 206 203 208 215 220 223 221 215 216 222 223 228 227 230 231 234 241 244 256 263 265 266 264 264 271 281 281 283 288 288 306 313 335 333 317
193 202 216 217 208 214 211 216 219 208 212 216 221 226 232 230 221 214 227 227 222 233 257 242 240 247 258 266 267 265 267 266 271 275 281 291 290 291 308 315 314 315 311
212 201 208 212 199 203 207 213 219 218 219 223 221 227 235 237 231 221 222 230 237 221 226 240 249 259 262 267 271 272 271 271 276 276 272 276 282 296 295 293 311 309 311
252 233 211 202 206 205 210 215 214 223 226 235 243 241 240 244 242 238 235 232 235 238 242 257 246 252 264 276 277 277 276 273 272 274 272 277 272 278 291 292 293 309 320
264 230 209 207 196 190 194 204 212 225 236 252 259 258 248 240 249 249 250 240 231 232 224 237 252 248 269 273 274 279 274 282 282 278 283 287 281 272 263 279 286 289 309
244 220 204 186 173 179 188 203 217 234 249 261 257 253 256 253 254 256 255 248 248 244 245 252 257 265 266 263 272 278 277 278 279 281 282 285 285 276 275 268 277 284 296
200 181 171 172 177 176 182 190 210 220 235 249 241 244 250 251 258 259 257 254 254 249 243 247 244 246 256 259 269 268 274 278 276 283 277 287 285 290 276 270 274 278 289
172 161 165 168 173 181 192 195 205 210 226 221 240 253 250 256 253 251 253 253 254 260 264 263 249 247 249 248 260 268 263 264 270 268 272 279 282 286 286 271 271 279 278
162 169 176 190 190 199 196 208 213 224 235 244 227 235 256 260 254 256 263 266 263 264 262 262 263 253 253 254 257 264 266 257 261 258 266 265 271 278 282 276 271 274 266
164 178 175 181 188 191 210 215 218 217 233 241 253 252 255 262 266 271 268 277 280 280 273 267 260 251 255 255 258 249 261 262 261 251 256 261 265 273 275 271 274 262 264
13 6 318 201 195 206 207 216 218 221 224 233 233 235 244 255 263 276 287 301 296 284 284 281 279 266 260 256 253 255 253 255 259 248 263 260 267 273 273 274 271 264 267
327 354 333 300 262 215 215 222 221 221 228 231 231 235 243 248 250 253 261 271 284 288 284 288 292 284 279 264 257 258 256 257 257 266 268 266 271 273 279 272 265 267 260
290 299 336 323 270 249 233 221 214 219 220 221 223 223 227 232 243 251 260 269 266 272 278 286 290 288 282 283 275 267 262 266 266 265 265 262 266 272 270 261 260 260 253
253 275 286 304 304 286 224 315 272 227 217 217 225 228 236 243 247 252 258 263 263 265 270 280 281 283 287 286 278 279 273 260 260 262 265 265 264 265 264 258 258 250 252
272 268 277 266 271 289 261 249 281 266 241 227 232 238 243 248 253 255 257 261 268 266 267 271 278 279 281 285 279 274 284 272 267 269 268 270 264 259 258 258 247 245 250
284 275 282 292 285 266 257 252 266 269 269 266 262 259 258 259 261 263 264 263 268 268 270 271 271 267 272 280 282 272 280 279 274 274 272 273 263 257 253 246 240 246 251
289 284 278 284 285 286 283 278 272 269 262 259 262 262 265 269 271 271 274 282 285 287 269 263 254 260 268 275 277 273 269 275 269 274 269 269 261 250 242 236 238 240 248
305 301 297 294 293 291 287 285 280 267 260 254 248 250 253 260 269 276 280 282 282 285 263 263 258 258 264 272 279 278 266 273 269 270 267 258 253 233 230 228 230 235 239
296 296 294 288 288 287 283 280 269 265 265 260 257 258 259 262 267 271 275 276 267 271 263 262 257 257 264 267 274 269 276 272 268 268 260 246 236 226 225 229 230 235 232
282 292 289 282 276 273 272 273 265 261 256 256 257 257 259 261 265 270 273 264 262 262 259 249 255 255 262 263 269 267 269 271 265 265 250 238 241 231 226 226 225 224 230
288 288 287 279 274 271 268 258 256 251 251 252 254 254 254 257 262 265 263 258 254 257 255 245 246 249 255 257 263 264 266 267 262 259 228 200 227 233 230 220 226 227 225
287 284 285 277 272 268 258 259 254 256 255 251 252 248 250 253 265 249 247 248 251 249 251 247 249 252 258 258 258 263 265 259 255 243 213 200 206 219 216 214 216 219 215
294 288 284 276 267 262 256 254 252 251 251 245 246 250 255 259 247 243 246 247 248 251 245 250 246 252 261 261 254 264 265 254 250 231 214 203 207 211 204 209 215 215 203
291 288 284 277 268 261 255 250 249 243 242 242 243 250 244 241 243 246 244 240 243 243 239 237 238 248 255 257 252 262 258 243 222 207 202 213 199 197 205 198 190 194 187
298 292 282 275 269 264 252 246 243 238 236 233 238 245 242 242 244 245 242 241 247 240 235 234 238 245 259 259 256 255 246 214 194 186 201 184 184 181 176 178 183 176 176
310 302 291 277 273 264 254 240 235 228 223 230 230 228 239 243 242 241 242 239 244 238 238 240 242 246 258 261 260 242 222 201 189 190 185 181 181 178 176 176 171 173 174
Wind_Speed_850mb
41 38 28 38 51 53 55 53 42 49 70 73 69 66 64 57 61 62 63 60 59 53 45 46 43 38 44 50 48 53 53 54 53 56 60 57 52 48 34 39 30 40 46
46 46 44 44 55 59 56 52 41 39 59 74 72 69 65 64 68 63 63 67 59 57 52 56 47 45 43 52 55 54 57 58 61 56 58 53 48 48 28 46 45 56 50
41 50 51 53 53 52 49 47 40 35 42 55 63 68 62 54 61 81 77 70 63 52 59 55 48 52 51 50 57 56 56 61 60 63 57 22 26 46 55 46 50 64 35
55 60 60 64 62 57 49 42 41 42 38 38 45 52 63 60 62 59 65 72 84 84 67 63 51 44 45 52 51 51 55 62 59 67 69 60 61 67 56 63 53 55 60
67 73 78 75 62 56 50 45 40 42 43 41 46 43 46 58 64 67 49 55 56 67 67 64 55 55 52 61 57 60 62 60 56 68 75 67 70 80 75 75 64 64 62
64 70 83 67 55 43 39 36 34 34 42 51 44 49 46 50 55 57 61 69 73 74 80 92 84 80 70 81 66 64 60 60 62 71 76 64 65 72 72 81 76 70 77
59 66 78 70 56 49 38 27 22 19 20 21 31 33 36 40 42 50 52 49 47 55 60 69 73 86 86 99 72 75 80 87 93 84 85 79 83 76 94 83 89 79 77
69 81 75 67 57 46 39 35 29 26 23 21 22 20 22 27 31 30 31 35 40 41 41 43 53 57 60 57 68 68 89 88 90 86 105 105 102 103 100 87 97 78 68
68 64 57 49 42 36 38 35 37 33 34 37 32 30 34 31 30 27 24 24 26 32 35 35 38 50 52 67 76 66 80 106 111 102 116 119 118 128 108 85 77 67 67
12 52 53 48 50 42 43 45 46 45 40 35 30 36 34 29 29 29 27 26 29 30 32 38 46 37 38 43 48 61 65 79 88 108 114 118 97 93 79 77 74 65 70
42 39 14 33 46 49 59 56 57 54 45 36 30 24 26 26 25 27 30 32 35 35 35 33 39 40 48 49 55 60 69 63 70 81 79 75 81 80 77 73 63 62 65
22 36 37 25 27 46 53 58 62 55 46 41 41 39 39 42 45 45 45 44 46 45 43 45 48 44 45 51 55 60 70 69 76 85 78 79 82 84 69 64 58 55 55
61 50 30 21 27 26 35 40 49 52 49 52 52 49 48 47 45 44 37 40 45 50 53 59 64 58 51 49 55 62 62 66 71 73 79 81 83 80 73 60 55 48 47
66 61 54 27 27 25 16 9 28 55 55 56 55 54 54 54 54 55 55 54 52 53 50 53 65 65 66 63 58 54 65 67 64 71 80 82 83 83 70 56 52 46 43
21 32 35 41 31 28 31 29 49 40 33 43 49 52 56 60 64 69 69 69 70 70 69 65 67 76 78 75 64 58 57 68 69 69 69 76 71 62 56 53 49 47 49
34 29 36 31 37 45 55 60 66 62 61 64 63 63 63 63 66 67 65 69 75 77 90 98 100 82 80 70 61 62 61 61 62 69 69 63 63 56 56 49 46 48 44
26 31 34 41 47 53 51 51 58 65 67 70 69 70 70 72 75 70 72 79 81 85 72 77 74 79 77 72 71 66 67 61 69 68 67 68 62 57 54 47 44 42 40
52 59 63 70 80 84 80 72 65 65 64 66 71 67 61 62 66 74 83 86 83 79 73 58 66 76 79 77 73 59 67 64 66 66 62 63 58 54 50 48 45 41 38
89 84 86 89 96 106 107 97 86 84 83 84 84 80 77 76 74 76 80 88 82 76 76 66 63 63 67 69 62 56 57 65 65 57 57 58 55 50 45 45 41 39 33
73 85 96 94 94 101 98 99 105 99 110 96 87 84 82 83 85 84 82 86 81 86 77 71 60 57 55 62 62 50 56 64 62 57 53 44 40 45 45 40 37 31 26
106 104 103 103 103 95 84 88 91 90 87 87 91 93 94 90 85 87 84 79 68 71 76 76 66 56 60 68 61 56 56 61 59 56 48 40 36 45 43 31 28 25 21
97 96 97 102 99 91 82 86 90 90 85 82 84 89 84 82 81 77 80 79 71 77 68 74 72 55 62 77 71 58 60 57 58 52 60 54 53 50 32 28 25 24 22
107 100 97 96 95 88 84 85 91 81 72 72 79 87 89 87 74 75 69 72 68 62 73 78 75 59 68 76 78 69 60 55 56 55 59 51 49 45 32 29 25 27 25
105 99 101 98 92 86 86 89 84 73 69 69 72 73 69 68 67 61 59 54 62 67 57 58 65 66 64 63 73 65 53 50 49 48 41 41 41 34 33 31 30 26 25
106 98 93 97 98 88 81 82 79 69 69 65 67 65 61 60 61 60 59 66 66 64 65 69 66 63 59 55 60 53 47 54 54 52 44 47 41 39 36 33 31 31 32
108 104 95 95 100 86 73 69 68 67 67 62 60 63 61 58 60 60 58 57 55 55 53 48 53 63 57 47 46 42 46 63 71 64 65 50 39 41 42 38 36 36 35
Wind_Direction_850mb
189 201 207 216 204 215 211 214 206 203 208 215 220 223 221 215 216 222 223 228 227 230 231 234 241 244 256 263 265 266 264 264 271 281 281 283 288 288 306 313 335 333 317
193 202 216 217 208 214 211 216 219 208 212 216 221 226 232 230 221 214 227 227 222 233 257 242 240 247 258 266 267 265 267 266 271 275 281 291 290 291 308 315 314 315 311
212 201 208 212 199 203 207 213 219 218 219 223 221 227 235 237 231 221 222 230 237 221 226 240 249 259 262 267 271 272 271 271 276 276 272 276 282 296 295 293 311 309 311
252 233 211 202 206 205 210 215 214 223 226 235 243 241 240 244 242 238 235 232 235 238 242 257 246 252 264 276 277 277 276 273 272 274 272 277 272 278 291 292 293 309 320
264 230 209 207 196 190 194 204 212 225 236 252 259 258 248 240 249 249 250 240 231 232 224 237 252 248 269 273 274 279 274 282 282 278 283 287 281 272 263 279 286 289 309
244 220 204 186 173 179 188 203 217 234 249 261 257 253 256 253 254 256 255 248 248 244 245 252 257 265 266 263 272 278 277 278 279 281 282 285 285 276 275 268 277 284 296
200 181 171 172 177 176 182 190 210 220 235 249 241 244 250 251 258 259 257 254 254 249 243 247 244 246 256 259 269 268 274 278 276 283 277 287 285 290 276 270 274 278 289
172 161 165 168 173 181 192 195 205 210 226 221 240 253 250 256 253 251 253 253 254 260 264 263 249 247 249 248 260 268 263 264 270 268 272 279 282 286 286 271 271 279 278
162 169 176 190 190 199 196 208 213 224 235 244 227 235 256 260 254 256 263 266 263 264 262 262 263 253 253 254 257 264 266 257 261 258 266 265 271 278 282 276 271 274 266
164 178 175 181 188 191 210 215 218 217 233 241 253 252 255 262 266 271 268 277 280 280 273 267 260 251 255 255 258 249 261 262 261 251 256 261 265 273 275 271 274 262 264
13 6 318 201 195 206 207 216 218 221 224 233 233 235 244 255 263 276 287 301 296 284 284 281 279 266 260 256 253 255 253 255 259 248 263 260 267 273 273 274 271 264 267
327 354 333 300 262 215 215 222 221 221 228 231 231 235 243 248 250 253 261 271 284 288 284 288 292 284 279 264 257 258 256 257 257 266 268 266 271 273 279 272 265 267 260
290 299 336 323 270 249 233 221 214 219 220 221 223 223 227 232 243 251 260 269 266 272 278 286 290 288 282 283 275 267 262 266 266 265 265 262 266 272 270 261 260 260 253
253 275 286 304 304 286 224 315 272 227 217 217 225 228 236 243 247 252 258 263 263 265 270 280 281 283 287 286 278 279 273 260 260 262 265 265 264 265 264 258 258 250 252
272 268 277 266 271 289 261 249 281 266 241 227 232 238 243 248 253 255 257 261 268 266 267 271 278 279 281 285 279 274 284 272 267 269 268 270 264 259 258 258 247 245 250
284 275 282 292 285 266 257 252 266 269 269 266 262 259 258 259 261 263 264 263 268 268 270 271 271 267 272 280 282 272 280 279 274 274 272 273 263 257 253 246 240 246 251
289 284 278 284 285 286 283 278 272 269 262 259 262 262 265 269 271 271 274 282 285 287 269 263 254 260 268 275 277 273 269 275 269 274 269 269 261 250 242 236 238 240 248
305 301 297 294 293 291 287 285 280 267 260 254 248 250 253 260 269 276 280 282 282 285 263 263 258 258 264 272 279 278 266 273 269 270 267 258 253 233 230 228 230 235 239
296 296 294 288 288 287 283 280 269 265 265 260 257 258 259 262 267 271 275 276 267 271 263 262 257 257 264 267 274 269 276 272 268 268 260 246 236 226 225 229 230 235 232
282 292 289 282 276 273 272 273 265 261 256 256 257 257 259 261 265 270 273 264 262 262 259 249 255 255 262 263 269 267 269 271 265 265 250 238 241 231 226 226 225 224 230
288 288 287 279 274 271 268 258 256 251 251 252 254 254 254 257 262 265 263 258 254 257 255 245 246 249 255 257 263 264 266 267 262 259 228 200 227 233 230 220 226 227 225
287 284 285 277 272 268 258 259 254 256 255 251 252 248 250 253 265 249 247 248 251 249 251 247 249 252 258 258 258 263 265 259 255 243 213 200 206 219 216 214 216 219 215
294 288 284 276 267 262 256 254 252 251 251 245 246 250 255 259 247 243 246 247 248 251 245 250 246 252 261 261 254 264 265 254 250 231 214 203 207 211 204 209 215 215 203
291 288 284 277 268 261 255 250 249 243 242 242 243 250 244 241 243 246 244 240 243 243 239 237 238 248 255 257 252 262 258 243 222 207 202 213 199 197 205 198 190 194 187
298 292 282 275 269 264 252 246 243 238 236 233 238 245 242 242 244 245 242 241 247 240 235 234 238 245 259 259 256 255 246 214 194 186 201 184 184 181 176 178 183 176 176
310 302 291 277 273 264 254 240 235 228 223 230 230 228 239 243 242 241 242 239 244 238 238 240 242 246 258 261 260 242 222 201 189 190 185 181 181 178 176 176 171 173 174